Tracking 19706 objects as of 16-Jun-2019
HD Live streaming from Space Station
objects crossing your sky now

STARLINK OBJ Q

Track STARLINK OBJ Q now!
10-day predictions


NORAD ID: 44249
Int'l Code: 2019-029Q
Perigee: 534.2 km
Apogee: 537.9 km
Inclination: 53.0 °
Period: 95.2 minutes
Semi major axis: 6907 km
RCS: Unknown
Launch date: May 24, 2019
Source: United States (US)
Launch site: AIR FORCE EASTERN TEST RANGE (AFETR)
aabbcc
Your satellite tracking list
Your tracking list is empty




NASA's NSSDC Master Catalog

Two Line Element Set (TLE):
1 44249U 19029Q   19166.42312907 +.00000046 +00000-0 +19680-4 0  9993
2 44249 053.0021 071.7966 0002695 120.1156 240.0102 15.12380290002585
Source of the keplerian elements: AFSPC